When you browse on this site, cookies collect data to enhance your experience and personalize the content and advertising you see.
Visit our Privacy Policy to learn more. By continuing to use the site, you agree to this use of cookies and data.
  • In Spain
  • List of Countries
  • For 7 days
  • Water Temperature
  • Weather Map
  • Weather Widgets
  • user-avatar
    Login

    Hourly Weather Batina

    Today, 16 December, Monday

    Time Temperature Precipitation Wind Pressure Humidity
    00:00 +9°C° 0 mm 3 mps 671 mmHg 64%
    01:00 +8°C° 0 mm 3 mps 671 mmHg 66%
    02:00 +8°C° 0 mm 3 mps 670 mmHg 68%
    03:00 +8°C° 0 mm 3 mps 670 mmHg 71%
    04:00 +8°C° 0 mm 3 mps 670 mmHg 72%
    05:00 +7°C° 0 mm 3 mps 670 mmHg 73%
    06:00 +7°C° 0 mm 2 mps 670 mmHg 74%
    07:00 +9°C° 0 mm 3 mps 670 mmHg 68%
    08:00 +10°C° 0 mm 3 mps 671 mmHg 63%
    09:00 +12°C° 0 mm 3 mps 671 mmHg 58%
    10:00 +13°C° 0 mm 3 mps 671 mmHg 52%
    11:00 +14°C° 0 mm 4 mps 671 mmHg 47%
    12:00 +15°C° 0 mm 4 mps 671 mmHg 41%
    13:00 +15°C° 0 mm 4 mps 670 mmHg 43%
    14:00 +14°C° 0 mm 4 mps 670 mmHg 44%
    15:00 +13°C° 0 mm 4 mps 669 mmHg 46%
    16:00 +12°C° 0 mm 4 mps 668 mmHg 52%
    17:00 +11°C° 0 mm 3 mps 668 mmHg 58%
    18:00 +10°C° 0 mm 3 mps 668 mmHg 64%
    19:00 +9°C° 0 mm 3 mps 667 mmHg 65%
    20:00 +9°C° 0 mm 3 mps 667 mmHg 65%
    21:00 +9°C° 0 mm 3 mps 667 mmHg 66%
    22:00 +9°C° 0 mm 3 mps 667 mmHg 67%
    23:00 +9°C° 0 mm 3 mps 666 mmHg 67%

    Tomorrow, 17 December, Tuesday

    Time Temperature Precipitation Wind Pressure Humidity
    00:00 +8°C° 0 mm 3 mps 666 mmHg 68%
    01:00 +8°C° 0 mm 3 mps 666 mmHg 67%
    02:00 +9°C° 0 mm 3 mps 665 mmHg 66%
    03:00 +9°C° 0 mm 3 mps 665 mmHg 65%
    04:00 +9°C° 0 mm 3 mps 665 mmHg 65%
    05:00 +8°C° 0 mm 3 mps 665 mmHg 64%
    06:00 +8°C° 0 mm 3 mps 664 mmHg 64%
    07:00 +10°C° 0 mm 3 mps 665 mmHg 58%
    08:00 +11°C° 0 mm 4 mps 665 mmHg 51%
    09:00 +13°C° 0 mm 5 mps 666 mmHg 45%
    10:00 +14°C° 0 mm 7 mps 665 mmHg 39%
    11:00 +15°C° 0 mm 9 mps 665 mmHg 34%
    12:00 +15°C° 0 mm 12 mps 665 mmHg 28%
    13:00 +16°C° 0 mm 11 mps 664 mmHg 29%
    14:00 +14°C° 0 mm 10 mps 663 mmHg 31%
    15:00 +13°C° 0 mm 9 mps 662 mmHg 33%
    16:00 +12°C° 0 mm 8 mps 662 mmHg 40%
    17:00 +10°C° 0 mm 7 mps 662 mmHg 48%
    18:00 +9°C° 0 mm 5 mps 662 mmHg 55%
    19:00 +9°C° 0.1 mm 6 mps 662 mmHg 59%
    20:00 +9°C° 0.1 mm 6 mps 662 mmHg 63%
    21:00 +8°C° 0.1 mm 6 mps 662 mmHg 67%
    22:00 +7°C° 0 mm 5 mps 662 mmHg 70%
    23:00 +6°C° 0 mm 5 mps 661 mmHg 74%

    Day after tomorrow, 18 December, Wednesday

    Time Temperature Precipitation Wind Pressure Humidity
    00:00 +5°C° 0 mm 4 mps 661 mmHg 77%
    01:00 +5°C° 0 mm 4 mps 661 mmHg 80%
    02:00 +4°C° 0 mm 4 mps 661 mmHg 83%
    03:00 +3°C° 0 mm 4 mps 661 mmHg 86%
    04:00 +3°C° 0 mm 4 mps 662 mmHg 86%
    05:00 +3°C° 0 mm 3 mps 662 mmHg 85%
    06:00 +3°C° 0 mm 3 mps 662 mmHg 84%
    07:00 +4°C° 0 mm 4 mps 663 mmHg 82%
    08:00 +4°C° 0 mm 4 mps 664 mmHg 81%
    09:00 +5°C° 0 mm 5 mps 664 mmHg 79%
    10:00 +5°C° 0 mm 5 mps 664 mmHg 76%
    11:00 +6°C° 0 mm 5 mps 665 mmHg 74%
    12:00 +5°C° 0 mm 6 mps 665 mmHg 71%
    13:00 +5°C° 0 mm 6 mps 665 mmHg 72%
    14:00 +6°C° 0 mm 5 mps 665 mmHg 72%
    15:00 +7°C° 0 mm 5 mps 666 mmHg 72%
    16:00 +6°C° 0 mm 5 mps 666 mmHg 76%
    17:00 +6°C° 0 mm 5 mps 667 mmHg 79%
    18:00 +5°C° 0 mm 4 mps 667 mmHg 82%
    19:00 +5°C° 0 mm 4 mps 668 mmHg 83%
    20:00 +4°C° 0 mm 3 mps 668 mmHg 85%
    21:00 +4°C° 0 mm 3 mps 668 mmHg 86%
    22:00 +4°C° 0 mm 3 mps 669 mmHg 86%
    23:00 +4°C° 0 mm 2 mps 669 mmHg 85%

    19 December, Thursday

    Time Temperature Precipitation Wind Pressure Humidity
    00:00 +4°C° 0 mm 2 mps 669 mmHg 84%
    01:00 +4°C° 0 mm 2 mps 669 mmHg 82%
    02:00 +4°C° 0 mm 2 mps 669 mmHg 81%
    03:00 +5°C° 0 mm 1 mps 669 mmHg 79%
    04:00 +5°C° 0 mm 1 mps 669 mmHg 77%
    05:00 +5°C° 0 mm 1 mps 669 mmHg 75%
    06:00 +4°C° 0 mm 1 mps 669 mmHg 74%
    07:00 +5°C° 0 mm 2 mps 670 mmHg 65%
    08:00 +7°C° 0 mm 2 mps 671 mmHg 56%
    09:00 +9°C° 0 mm 2 mps 672 mmHg 47%
    10:00 +10°C° 0 mm 3 mps 672 mmHg 43%
    11:00 +11°C° 0 mm 3 mps 672 mmHg 40%
    12:00 +12°C° 0 mm 4 mps 672 mmHg 36%
    13:00 +12°C° 0 mm 4 mps 672 mmHg 40%
    14:00 +12°C° 0 mm 3 mps 671 mmHg 43%
    15:00 +11°C° 0 mm 3 mps 671 mmHg 46%
    16:00 +10°C° 0 mm 3 mps 671 mmHg 48%
    17:00 +9°C° 0 mm 3 mps 671 mmHg 51%
    18:00 +8°C° 0 mm 2 mps 671 mmHg 53%
    19:00 +8°C° 0 mm 2 mps 671 mmHg 55%
    20:00 +8°C° 0 mm 3 mps 671 mmHg 56%
    21:00 +8°C° 0 mm 3 mps 671 mmHg 57%
    22:00 +7°C° 0 mm 3 mps 671 mmHg 58%
    23:00 +7°C° 0 mm 3 mps 671 mmHg 59%

    20 December, Friday

    Time Temperature Precipitation Wind Pressure Humidity
    00:00 +7°C° 0 mm 3 mps 671 mmHg 60%
    01:00 +7°C° 0 mm 3 mps 670 mmHg 61%
    02:00 +7°C° 0 mm 3 mps 670 mmHg 62%
    03:00 +5°C° 0 mm 3 mps 670 mmHg 63%
    04:00 +5°C° 0 mm 3 mps 669 mmHg 65%
    05:00 +5°C° 0 mm 3 mps 669 mmHg 66%
    06:00 +5°C° 0 mm 3 mps 669 mmHg 67%
    07:00 +7°C° 0 mm 4 mps 669 mmHg 62%
    08:00 +8°C° 0 mm 4 mps 670 mmHg 58%
    09:00 +10°C° 0 mm 4 mps 670 mmHg 54%
    10:00 +11°C° 0 mm 6 mps 670 mmHg 48%
    11:00 +12°C° 0 mm 7 mps 669 mmHg 43%
    12:00 +13°C° 0 mm 8 mps 669 mmHg 38%
    13:00 +12°C° 0 mm 7 mps 669 mmHg 40%
    14:00 +12°C° 0 mm 7 mps 668 mmHg 42%
    15:00 +11°C° 0 mm 6 mps 667 mmHg 44%
    16:00 +10°C° 0 mm 6 mps 667 mmHg 48%
    17:00 +8°C° 0 mm 5 mps 667 mmHg 52%
    18:00 +7°C° 0 mm 4 mps 667 mmHg 57%
    19:00 +8°C° 0 mm 4 mps 667 mmHg 54%
    20:00 +8°C° 0 mm 5 mps 667 mmHg 51%
    21:00 +8°C° 0 mm 5 mps 667 mmHg 48%
    22:00 +8°C° 0 mm 5 mps 667 mmHg 48%
    23:00 +8°C° 0 mm 5 mps 666 mmHg 49%

    21 December, Saturday

    Time Temperature Precipitation Wind Pressure Humidity
    00:00 +8°C° 0 mm 5 mps 666 mmHg 49%
    01:00 +8°C° 0 mm 5 mps 666 mmHg 53%
    02:00 +8°C° 0 mm 5 mps 665 mmHg 56%
    03:00 +8°C° 0 mm 5 mps 665 mmHg 60%
    04:00 +8°C° 0.3 mm 5 mps 665 mmHg 69%
    05:00 +8°C° 0.3 mm 5 mps 665 mmHg 77%
    06:00 +8°C° 0.3 mm 6 mps 665 mmHg 86%
    07:00 +8°C° 0.2 mm 5 mps 666 mmHg 86%
    08:00 +9°C° 0.2 mm 5 mps 666 mmHg 86%
    09:00 +10°C° 0.2 mm 4 mps 667 mmHg 85%
    10:00 +10°C° 0 mm 5 mps 667 mmHg 77%
    11:00 +11°C° 0 mm 7 mps 668 mmHg 68%
    12:00 +12°C° 0 mm 8 mps 668 mmHg 60%
    13:00 +12°C° 0 mm 7 mps 668 mmHg 60%
    14:00 +11°C° 0 mm 7 mps 668 mmHg 61%
    15:00 +11°C° 0 mm 6 mps 668 mmHg 61%
    16:00 +10°C° 0 mm 5 mps 668 mmHg 66%
    17:00 +10°C° 0 mm 3 mps 668 mmHg 71%
    18:00 +9°C° 0 mm 2 mps 668 mmHg 77%
    19:00 +9°C° 0 mm 2 mps 669 mmHg 76%
    20:00 +8°C° 0 mm 2 mps 669 mmHg 76%
    21:00 +8°C° 0 mm 2 mps 669 mmHg 76%
    22:00 +9°C° 0 mm 2 mps 669 mmHg 78%
    23:00 +9°C° 0 mm 2 mps 670 mmHg 81%
    Show more